AirNav   Air Wisconsin Up To $57,000 Bonus
 
 906 users online  

N71 Donegal Springs Airpark
Mount Joy/Marietta, Pennsylvania, USA

GOING TO MOUNT JOY/MARIETTA?


FAA INFORMATION EFFECTIVE 25 FEBRUARY 2021

Location

FAA Identifier: N71
Lat/Long: 40-05-31.9440N 076-34-27.6790W
40-05.532400N 076-34.461317W
40.0922067,-76.5743553
(estimated)
Elevation: 458 ft. / 140 m (estimated)
Variation: 09W (1975)
From city: 3 miles SW of central business district of the associated city
Time zone: UTC -5 (UTC -4 during Daylight Saving Time)
Zip code: 17547

Airport Operations

Airport use: Open to the public
Activation date: 05/1947
Control tower: no
ARTCC: NEW YORK CENTER
FSS: WILLIAMSPORT FLIGHT SERVICE STATION
NOTAMs facility: IPT (NOTAM-D service available)
Attendance: MON-FRI 0800-1700, ALL SAT UNATTND, ALL SUN UNATTND
Wind indicator: yes
Segmented circle: no
Lights: ACTVT MIRL RWY 10/28 - CTAF.
Beacon: white-green (lighted land airport)
ACTVT ROTG BCN - CTAF

Airport Communications

CTAF/UNICOM: 122.8
HARRISBURG APPROACH: 126.45
HARRISBURG DEPARTURE: 126.45
CLEARANCE DELIVERY: 127.05
WX ASOS at MDT (11 nm NW): 118.8 (717-944-1372)
WX ASOS at LNS (13 nm E): 125.675 (717-569-8860)
WX ASOS at CXY (15 nm NW): PHONE 717-770-0880
WX ASOS at THV (17 nm SW): 119.275 (717-792-5529)
WX AWOS-2 at 9D4 (19 nm NE): 118.45 (717-866-2906)

Nearby radio navigation aids

VOR radial/distance  VOR name  Freq  Var
LRPr272/13.1LANCASTER VOR/DME117.3009W
HARr129/26.0HARRISBURG VORTAC112.5010W
RAVr189/27.7RAVINE VORTAC114.6011W

 
NDB name  Hdg/Dist  Freq  Var  ID
BELLGROVE193/20.632810WBZJ -... --.. .---

Airport Services

Fuel available: 100LL
Parking: tiedowns
Airframe service: MAJOR
Powerplant service: NONE
Bottled oxygen: NONE
Bulk oxygen: NONE

Runway Information

Runway 10/28

Dimensions: 3250 x 50 ft. / 991 x 15 m
Surface: asphalt, in fair condition
Weight bearing capacity: 
Single wheel: 12.5
Runway edge lights: medium intensity
RUNWAY 10  RUNWAY 28
Latitude: 40-05.508200N40-05.557200N
Longitude: 076-34.809183W076-34.115083W
Elevation: 458.0 ft.400.0 ft.
Traffic pattern: leftleft
Runway heading: 094 magnetic, 085 true274 magnetic, 265 true
Displaced threshold: 300 ft.
RWY 10 DTHR BAR 300 FT FM RWY END, DTHR LGTS 300 FT FM RWY END.
no
Markings: nonprecision, in good conditionnonprecision, in good condition
Touchdown point: yes, no lightsyes, no lights
Obstructions: 29 ft. pole, 606 ft. from runway, 244 ft. left of centerline, 14:1 slope to clear
RWY 10; 15 FT ROAD 16 FT FM RWY END.
none

Airport Ownership and Management from official FAA records

Ownership: Privately-owned
Owner: N71, INC.
23415 THREE NOTCH ROAD, SUITE 2008, #122
CALIFORNIA, MD 20619
Phone 301-904-0299
Manager: BEN TRAVIS
186 AIRPORT RD
MARIETTA, PA 17547
Phone 717-928-4360

Airport Operational Statistics

Aircraft based on the field: 14
Single engine airplanes: 14
    
Aircraft operations: avg 33/day *
50% local general aviation
42% transient general aviation
8% military
* for 12-month period ending 30 December 2020

Additional Remarks

FOR CD CTC HARRISBURG APCH AT 800-932-0712.

Instrument Procedures

NOTE: All procedures below are presented as PDF files. If you need a reader for these files, you should download the free Adobe Reader.

NOT FOR NAVIGATION. Please procure official charts for flight.
FAA instrument procedures published for use from 25 February 2021 at 0901Z to 25 March 2021 at 0900Z.

 
IAPs - Instrument Approach Procedures
RNAV (GPS) RWY 28   download (192KB)
VOR RWY 28   download (222KB)
NOTE: Special Take-Off Minimums/Departure Procedures apply   download (149KB)

Other nearby airports with instrument procedures:

KMDT - Harrisburg International Airport (11 nm NW)
58N - Reigle Field Airport (12 nm N)
KLNS - Lancaster Airport (13 nm E)
KCXY - Capital City Airport (15 nm NW)
08N - Keller Brothers Airport (16 nm NE)
KTHV - York Airport (17 nm SW)
9D4 - Deck Airport (19 nm NE)
 
Loc | Ops | Rwys | IFR | FBO | Links
Com | Nav | Svcs | Stats | Notes
Area around N71 (Donegal Springs Airpark)
 
Road maps at: MapQuest Bing Google
 
Aerial photo
WARNING: Photo may not be current or correct
Aerial photo of N71 (Donegal Springs Airpark)
Looking east.

Do you have a better or more recent aerial photo of Donegal Springs Airpark that you would like to share? If so, please send us your photo.

 
Sectional chart

 
Airport distance calculator
Flying to Donegal Springs Airpark? Find the distance to fly.

From to N71

Sunrise and sunset
Times for 04-Mar-2021
 Local
(UTC-5)
 Zulu
(UTC)
Morning civil twilight06:0911:09
Sunrise06:3611:36
Sunset18:0023:00
Evening civil twilight18:2723:27

Current date and time
Zulu (UTC)  05-Mar-2021 03:26:51
Local (UTC-5)  04-Mar-2021 22:26:51
 
METAR
KMDT 
11nm NW 
050256Z 31017G24KT 10SM CLR M01/M12 A3001 RMK AO2 SLP166 T10061122 51013
KLNS 
13nm E 
050253Z 31016G25KT 10SM CLR 00/M11 A2998 RMK AO2 SLP155 T00001111 51011
KCXY 
15nm NW 
050256Z AUTO 32015G24KT 10SM CLR 00/M12 A3001 RMK AO2 SLP168 T00001122 51009
KTHV 
18nm SW 
050253Z AUTO 31010KT 10SM CLR M01/M11 A3001 RMK AO2 SLP169 60000 T10111111 50014
KMUI 
19nm N 
050256Z AUTO 27006G16KT 10SM CLR M01/M12 A2999 RMK AO2 SLP163 T10081124
TAF
KMDT 
11nm NW 
042320Z 0500/0524 31018G26KT P6SM SCT050 FM050300 30013G22KT P6SM SKC FM051600 31014G24KT P6SM FEW045
KLNS 
13nm E 
042320Z 0500/0524 32012G18KT P6SM SCT050 FM050400 31011G17KT P6SM SKC FM051700 30014G23KT P6SM FEW045
KMUI 
19nm N 
041900Z 0419/0601 31010G15KT 9999 BKN045 510053 QNH2986INS TEMPO 0419/0422 33015G25KT BECMG 0423/0424 32012KT 9999 SCT045 510053 QNH2992INS BECMG 0513/0514 32020G30KT 9999 SKC 510063 QNH2991INS BECMG 0522/0523 30012KT 9999 SKC QNH2991INS TX02/0519Z TNM04/0511Z
NOTAMs
Click for the latest NOTAMs
NOTAMs are issued by the DoD/FAA and will open in a separate window not controlled by AirNav.

 

 
 

FBO, Fuel Providers, and Aircraft Ground Support

  
 Business Name 
 
 Contact 
 
 Services / Description 
 
Fuel Prices
 
Comments
  
N71, Inc. 717-928-4360
no information available

If you are affiliated with N71, Inc. and would like to show here your services, contact info, web link, logo, and more, click here
100LL
SS $4.49 
 Updated 02-Mar-2021
 
   2 read write
SS=Self service
Update Fuel Prices
 

Would you like to see your business listed on this page?

 If your business provides an interesting product or service to pilots, flight crews, aircraft, or users of the Donegal Springs Airpark, you should consider listing it here.  To start the listing process, click on the button below
 
Add a business
 

Other Pages about Donegal Springs Airpark

flyn71.com/index.html
 
Update a link
 
Copyright © AirNav, LLC. All rights reserved. Privacy Policy  Contact